Regional Weather Roundup
Issued by NWS Wakefield, VA

Home | Current Version | Previous Version | Graphics & Text | Print | Product List | Glossary On
Versions: 1 2 3 4 5 6 7 8 9 10 11 12 13 14 15 16 17 18 19 20 21 22 23 24 25 26 27 28 29 30 31 32 33 34 35 36 37 38 39 40 41 42 43 44 45 46 47 48 49 50
000
ASUS41 KAKQ 301915
RWRAKQ

REGIONAL WEATHER ROUNDUP
NATIONAL WEATHER SERVICE WAKEFIELD VA
300 PM EDT MON MAY 30 2016

Note: "fair" indicates few or no clouds below 12,000 feet with no
significant weather and/or obstructions to visibility. * = Denotes
station may not report precipitation (e.g., rain,snow,etc.),
thunder or fog.

VAZ042-051-052>054-056-302000-
NORTHERN VIRGINIA

CITY           SKY/WX    TMP DP  RH WIND       PRES   REMARKS
WASH NATIONAL  CLOUDY    79  69  71 S7        29.97F
DULLES         CLOUDY    83  66  56 E8        29.97F
FORT BELVOIR   FAIR      78  67  69 S5        29.97F
QUANTICO       CLOUDY    76  70  82 S7        29.99S
FREDERICKSBRG* PTSUNNY   77  70  79 SE3       29.97F
STAFFORD*      CLOUDY    77  69  74 SE5       30.02S
WARRENTON      FAIR      82  63  52 CALM      29.97F
CULPEPER*      FAIR      83  69  62 CALM      29.98F
MANASSAS*      SUNNY     82  68  61 CALM      29.97F
LEESBURG*      FAIR      84  68  58 SW7       29.98F
WINCHESTER     FAIR      82  61  47 CALM      29.97F
FRONT ROYAL*   FAIR      81  64  57 CALM      29.97F
LURAY*         FAIR      82  59  44 N3        29.98F
$$

VAZ048-049-060>072-079>083-302000-
CENTRAL AND SOUTH CENTRAL VIRGINIA

CITY           SKY/WX    TMP DP  RH WIND       PRES   REMARKS
RICHMOND       RAIN      74  71  91 N5        29.98S FOG
CHESTERFIELD*  CLOUDY    75  63  64 NW5       29.99F
PETERSBURG*    RAIN      73  73 100 E6        29.99S
HANOVER        PTSUNNY   77  69  76 VRB3      29.99F
TAPPAHANNOCK*  LGT RAIN  74  74 100 CALM      29.99F
QUINTON*       CLOUDY    72  70  92 CALM      29.98S
CHARLOTTSVILLE PTSUNNY   81  64  56 E3        29.98F
GORDONSVILLE*  MOCLDY    79  67  67 CALM      29.97F
ORANGE*        PTSUNNY   81  68  65 CALM      30.00F
LOUISA*        PTSUNNY   81  73  78 N5        29.97F
BUMPASS*       MOCLDY    76  70  80 CALM      29.98F
FARMVILLE*     NOT AVBL
CREWE*         CLOUDY    75  75  98 CALM      29.98F
FORT PICKETT*  NOT AVBL
CHASE CITY*    MOCLDY    79  72  79 N3        29.98S
CLARKSVILLE*   FAIR      77  72  83 CALM      29.97F
SOUTH HILL*    CLOUDY    76  71  85 CALM      30.04R
LAWRENCEVILLE* CLOUDY    72  71  99 CALM      29.98S
EMPORIA*       FAIR      79  68  69 N5        29.98S
$$

VAZ088>098-302000-
SOUTHEAST VIRGINIA

CITY           SKY/WX    TMP DP  RH WIND       PRES   REMARKS
NORFOLK        LGT RAIN  77  69  76 SE7       29.97F
VIRGINIA BEACH LGT RAIN  79  71  76 S7        29.97F
NORFOLK NAVAL  CLOUDY    78  69  73 E6        29.99F
WEST POINT*    CLOUDY    74  71  89 E3        30.00S
SALUDA*        CLOUDY    71  71  99 CALM      30.00S
NEWPORT NEWS   HVY RAIN  70  70 100 E8        29.99F VSB 1
LANGLEY AFB    LGT RAIN  72  72 100 NE5       29.99S FOG
FORT EUSTIS    LGT RAIN  71  55  57 E7        29.97S
WILLIAMSBURG*  FAIR      73  73 100 E5        30.00R
HR EXEC AP*      N/A     72  70  94 NW6       30.00S
FRANKLIN*      FAIR      78  70  76 E6        29.97F
US460-WAKEFLD  CLOUDY    78  68  71 SE3       29.97S
$$

VAZ020-022-025-037-045-302000-
WEST CENTRAL AND SOUTHWEST VIRGINIA

CITY           SKY/WX    TMP DP  RH WIND       PRES   REMARKS
STAUNTON*      FAIR      80  60  50 CALM      30.01F
WAYNESBORO*    CLOUDY    78  64  63 SE8       30.01F
HOT SPRINGS VA FAIR      72  59  65 SE7       30.11F
LYNCHBURG      CLOUDY    80  64  58 CALM      29.99F
DANVILLE       FAIR      83  69  62 VRB5      29.97F
SOUTH BOSTON*  FAIR      79  71  76 CALM      29.97F
MARTINSVILLE   FAIR      80  63  56 CALM      30.01F
ROANOKE        PTSUNNY   82  62  50 E7        30.01F
BLACKSBURG     CLOUDY    80  62  55 SE7       30.06F
DUBLIN*        FAIR      82  58  45 S5        30.04F
MARION*        PTSUNNY   79  63  57 CALM      30.07F
HILLSVILLE*    FAIR      76  55  48 N7        30.05F
RICHLANDS*     MOCLDY    77  44  30 N8        30.06F
WISE*          PTSUNNY   77  54  44 N9        30.09F
ABINGDON*      PTSUNNY   81  59  46 N3        30.03F
$$

MDZ021>025-VAZ099-100-302000-
SOUTHERN MARYLAND AND THE DELMARVA PENINSULA

CITY           SKY/WX    TMP DP  RH WIND       PRES   REMARKS
PATUXENT RIVER CLOUDY    72  68  87 SE7       29.99S
BAY BRIDGE APT PTSUNNY   75  68  78 SE6       29.98S
LEONARDTOWN    CLOUDY    72  68  88 SE5       30.00S
DOVER          LGT RAIN  73  73 100 SE7       29.98S
GEORGETOWN     LGT RAIN  72  71  97 SE5       30.00F
EASTON         CLOUDY    75  75 100 CALM      30.02F FOG
CAMBRIDGE      CLOUDY    72  70  94 S5        29.99S
SALISBURY      LGT RAIN  73  71  93 S6        30.00S
OCEAN CITY     LGT RAIN  68  67  96 CALM      30.00F FOG
WALLOPS ISLAND RAIN      73  71  93 CALM      30.00F FOG
ACCOMACK*      DRIZZLE   72  66  83 W3        30.00F
$$

NCZ012>017-030>032-302000-
NORTH CENTRAL AND EASTERN NORTH CAROLINA

CITY           SKY/WX    TMP DP  RH WIND       PRES   REMARKS
ROANOKE RAPIDS FAIR      79  70  73 SE7       29.96R
RALEIGH        CLOUDY    83  70  64 N10       29.94F
ELIZABETH CITY CLOUDY    75  72  90 SE7       29.99S
AHOSKIE*       CLOUDY    79  69  72 SE5       29.96F
EDENTON*       CLOUDY   N/A N/A N/A SE12      29.98F
CURRITUCK*     DRIZZLE   75  74  97 CALM      29.99F
KILL DEVIL HLS LGT RAIN  73  72  96 CALM      29.98F
MANTEO         NOT AVBL
CAPE HATTERAS  HVY RAIN  72  70  93 CALM      29.99F FOG
TARBORO*       FAIR      82  71  69 SE6       29.97R
GOLDSBORO      NOT AVBL
WASHINGTON     RAIN      72  70  92 SW12      29.98R
GREENVILLE     LGT RAIN  72  72 100 SE10      29.99S
NEW BERN       CLOUDY    73  69  87 E10       29.98S
WILMINGTON     CLOUDY    79  71  76 SE12      29.92F
$$

VAZ048-302000-
ELSEWHERE

CITY           SKY/WX    TMP DP  RH WIND       PRES   REMARKS
HARRISBURG PA  PTSUNNY   84  66  54 SE7       29.94F
BALTIMORE      CLOUDY    80  66  62 SE9       29.96F
ANNAPOLIS      PTSUNNY   74  66  76 SE7       29.98S
ANDREWS AFB    CLOUDY    77  68  73 SE7       29.97S
PHILADELPHIA   CLOUDY    78  65  63 S9        29.97F
HENDERSON NC   CLOUDY    76  69  76 N7        29.97F
GREENSBORO     PTSUNNY   82  65  56 NE6       29.97F
ROCKY MOUNT    LGT RAIN  78  72  81 VRB5      29.95F
$$

VAZ100-302000-
MARINE

STATION/POSITION TIME  TEMP    WIND        PRES    WAVE   SWELL
                       AIR SEA DIR/SP/G            HT/PER HT/PER
                 (UTC) (F)     (DEG/KT/KT) (MB)    (FT/S) (FT/S)
BRANDYWINE LGT   1800   69     240/  4/  7 1016.1F
CAPE MAY NJ      1800   67 69  160/  8/ 12 1015.9F
LEWES DE         1800   70 66  230/  4/  5 1016.2F
15NM E FENWICK I 1850   68 65              1016.2F   4/ 6
OCEAN-CITY-INLET 1800   67 60  190/  2/  3 1016.6F
WACHAPREAGUE VA  1800   72 76  190/  5/  6 1015.7F
THOMAS POINT MD  1900   71 71  190/  5/  5 1016.6F
GOOSES REEF MD   1900   71 70  180/  8/ 10 1016.5S   0
COVE POINT MD    1800   69     180/  9/  9 1016.1F
SOLOMONS ISLAND  1800   70 66  140/  8/  9   N/A
BISHOPS HEAD MD  1800   72 75  170/ 11/ 12 1015.8F
PINEY POINT MD   1800          160/  8/  9   N/A
POTOMAC MD       1900   70 71  160/ 10/ 12 1014.5F   1/ 2
CAMBRIDGE MD     1800   72 70   90/  4/  4 1014.6F
LEWISETTA VA     1800   73 74  150/  5/  6 1015.1F
RAPPAHANNOCK LGT 1800           80/  5/  6 1016.6F
STINGRAY PT      1900   69 69  130/  6/  8 1016.1S   1
YORK RVR RNG VA  1800   70      80/  9/ 11 1015.2F
YORKTOWN VA      1800   71 71   70/  7/  8 1015.6F
JAMESTOWN VA     1900   73 75   90/  6/ 10   N/A     1
DOMINION TERM VA 1800   73      70/  7/  9 1015.5F
KIPTOPEKE VA     1800      70  140/  6/  7   N/A
CHES BAY BRIDGE  1800   73 68  110/  4/  7 1015.4F
CAPE HENRY VA    1800   72     140/  9/ 11   N/A
CHESAPEAKE LGHT  1800   69     150/ 10/ 10 1016.3F
WILLOUBY STN VA  1800   71      40/  8/  8 1016.5F
CAPE HENRY BUOY  1812      69                N/A     4/ 6
1ST LANDING BUOY 1900   70 71  130/ 12/ 14 1015.1F   2/ 4
CAPE CHARLES BUO 1826      68                N/A     3/ 7   3/ 7
OFFSHORE WE BUOY 1821      70                N/A     4/ 6   5/ 6
64NM E OF VA BCH 1850   66 64  160/  8/ 10 1015.7F   6/ 7   5/ 7
DUCK PIER NC     1800   67 58  150/ 11/ 12 1015.2F
44100 DUCK FRF   1824      68                N/A     5/ 7
44056 DUCK FRF   1811      62                N/A     4/ 7
OREGON INLET NC  1800   72 75  150/  6/  9 1016.0F
HATTERAS NC      1800   71 75  110/  4/  5 1015.4F
DIAMOND SHLS NC  1850   74 80  160/ 17/ 23 1015.0F   6/ 7   2/13
CAPE LOOKOUC1F1C2F2C3F3C4F4C5F5C6F6C7F7C8M1C9!


USA.gov is the U.S. government's official web portal to all federal, state and local government web resources and services.